Location: Banios
(43.0451°N, 0.2335°E)
Time: 08:28:51
(UTC+00:00)

A-11 Canister half - Pass Details

Date: 20 May 2021
Orbit: 1527 x 1681 km, 47.3° (Epoch: 22 June)

Event Time Altitude Azimuth Distance (km) Brightness Sun altitude
Rises 04:32:03 0° 179° (S) 4,665 11.3 -0.6°
Reaches altitude 10° 04:36:29 10° 161° (SSE) 3,697 10.9 0.1°
Maximum altitude 04:41:53 17° 124° (SE) 3,194 11.1 1.0°
Drops below altitude 10° 04:47:21 10° 88° (E) 3,757 12.4 1.8°
Sets 04:51:52 0° 70° (ENE) 4,773 14.5 2.6°
